Location: Altleiningen
(49.5078°N, 8.0741°E)
Time: 00:02:37
(UTC+00:00)

SJ-6B - Pass Details

Date: 03 March 2021
Orbit: 509 x 581 km, 97.6° (Epoch: 13 April)

Event Time Altitude Azimuth Distance (km) Brightness Sun altitude
Exits shadow 19:23:03 28° 181° (S) 1,100 4.2 -21.6°
Maximum altitude 19:25:07 68° 258° (WSW) 622 3.1 -21.9°
Drops below altitude 10° 19:29:11 10° 342° (NNW) 1,875 6.0 -22.5°
Sets 19:31:20 0° 345° (NNW) 2,765 6.8 -22.9°
